| time (UTC) | temp F | wind direction | speed knots | gust knots | rain 1hr in | rain 24hr in | rain mn in | humidity % | barometer mb |
| 20260506050819 | 50 | 24 | 8.7 | 13.9 | 0.00 | 0.00 | 0.00 | 83 | 1010.8 |
| 20260506050314 | 50 | 22 | 7.8 | 12.2 | 0.00 | 0.00 | 0.00 | 83 | 1010.9 |
| 20260506044821 | 50 | 22 | 7.0 | 12.2 | 0.00 | 0.08 | 0.00 | 83 | 1010.9 |
| 20260506044316 | 50 | 30 | 7.0 | 13.0 | 0.00 | 0.08 | 0.00 | 84 | 1011.1 |
| 20260506043829 | 50 | 5 | 8.7 | 13.0 | 0.00 | 0.08 | 0.00 | 84 | 1011.1 |
| 20260506043323 | 50 | 17 | 7.0 | 13.0 | 0.00 | 0.08 | 0.00 | 84 | 1010.8 |
| 20260506042817 | 50 | 42 | 7.0 | 12.2 | 0.00 | 0.08 | 0.00 | 84 | 1010.9 |
| 20260506042331 | 50 | 28 | 6.1 | 12.2 | 0.00 | 0.08 | 0.00 | 84 | 1010.8 |
| 20260506041825 | 50 | 5 | 7.8 | 13.9 | 0.00 | 0.08 | 0.00 | 84 | 1010.8 |
| 20260506041320 | 50 | 9 | 7.8 | 13.9 | 0.00 | 0.08 | 0.00 | 84 | 1011.0 |
| 20260506040818 | 50 | 18 | 8.7 | 14.8 | 0.00 | 0.08 | 0.00 | 84 | 1010.8 |
| 20260506035827 | 50 | 27 | 8.7 | 13.9 | 0.00 | 0.08 | 0.00 | 84 | 1010.8 |
| 20260506035322 | 50 | 34 | 8.7 | 13.0 | 0.00 | 0.08 | 0.00 | 84 | 1011.0 |
| 20260506034816 | 50 | 17 | 5.2 | 11.3 | 0.00 | 0.08 | 0.00 | 84 | 1011.0 |
| 20260506034331 | 50 | 19 | 7.0 | 11.3 | 0.00 | 0.08 | 0.00 | 84 | 1010.8 |
| 20260506032816 | 50 | 32 | 6.1 | 10.4 | 0.00 | 0.08 | 0.00 | 83 | 1010.6 |
| 20260506032314 | 50 | 19 | 6.1 | 12.2 | 0.00 | 0.08 | 0.00 | 83 | 1010.5 |
| 20260506031829 | 50 | 24 | 7.8 | 12.2 | 0.00 | 0.08 | 0.00 | 83 | 1010.1 |
| 20260506030316 | 50 | 24 | 10.4 | 16.5 | 0.00 | 0.08 | 0.00 | 82 | 1009.9 |
| 20260506025831 | 50 | 57 | 9.6 | 19.1 | 0.00 | 0.08 | 0.00 | 82 | 1009.6 |
| 20260506025325 | 50 | 21 | 12.2 | 19.1 | 0.00 | 0.08 | 0.00 | 82 | 1009.4 |
| 20260506024819 | 50 | 29 | 9.6 | 18.2 | 0.00 | 0.08 | 0.00 | 83 | 1009.5 |
| 20260506024318 | 50 | 36 | 7.8 | 18.2 | 0.00 | 0.08 | 0.00 | 83 | 1009.5 |
| 20260506023832 | 50 | 24 | 9.6 | 18.2 | 0.00 | 0.08 | 0.00 | 83 | 1009.4 |
| 20260506023327 | 50 | 34 | 8.7 | 15.6 | 0.00 | 0.08 | 0.00 | 83 | 1009.2 |
| 20260506022821 | 50 | 31 | 12.2 | 19.1 | 0.00 | 0.08 | 0.00 | 83 | 1009.1 |
| 20260506021832 | 50 | 19 | 11.3 | 16.5 | 0.00 | 0.08 | 0.00 | 83 | 1008.9 |
| 20260506021327 | 50 | 37 | 8.7 | 14.8 | 0.00 | 0.08 | 0.00 | 83 | 1008.7 |
| 20260506020821 | 50 | 61 | 8.7 | 14.8 | 0.00 | 0.08 | 0.00 | 83 | 1008.6 |
| 20260506020320 | 50 | 38 | 10.4 | 15.6 | 0.00 | 0.08 | 0.00 | 83 | 1008.4 |
| 20260506015814 | 50 | 28 | 11.3 | 15.6 | 0.00 | 0.08 | 0.00 | 83 | 1008.4 |
| 20260506015328 | 50 | 39 | 10.4 | 15.6 | 0.00 | 0.08 | 0.00 | 83 | 1008.5 |
| 20260506014821 | 50 | 28 | 7.8 | 14.8 | 0.00 | 0.08 | 0.00 | 83 | 1008.2 |
| 20260506014316 | 50 | 360 | 10.4 | 15.6 | 0.00 | 0.08 | 0.00 | 82 | 1008.1 |
| 20260506013829 | 50 | 34 | 11.3 | 15.6 | 0.00 | 0.08 | 0.00 | 82 | 1008.2 |
| 20260506013324 | 50 | 24 | 10.4 | 16.5 | 0.00 | 0.08 | 0.00 | 82 | 1008.2 |
| 20260506012818 | 50 | 50 | 10.4 | 16.5 | 0.00 | 0.08 | 0.00 | 82 | 1008.1 |
| 20260506012317 | 50 | 42 | 11.3 | 17.4 | 0.00 | 0.08 | 0.00 | 82 | 1008.0 |
| 20260506011326 | 50 | 19 | 12.2 | 14.8 | 0.00 | 0.08 | 0.00 | 82 | 1007.9 |
| 20260506010820 | 50 | 38 | 10.4 | 19.1 | 0.00 | 0.08 | 0.00 | 82 | 1007.9 |
| 20260506010315 | 50 | 50 | 12.2 | 19.1 | 0.00 | 0.08 | 0.00 | 82 | 1007.9 |
| 20260506005829 | 50 | 36 | 9.6 | 14.8 | 0.00 | 0.08 | 0.00 | 82 | 1008.0 |
| 20260506005322 | 51 | 17 | 10.4 | 14.8 | 0.00 | 0.08 | 0.00 | 81 | 1007.9 |
| 20260506004815 | 51 | 53 | 10.4 | 14.8 | 0.00 | 0.08 | 0.00 | 81 | 1007.6 |
| 20260506004313 | 51 | 26 | 10.4 | 16.5 | 0.00 | 0.08 | 0.00 | 81 | 1007.6 |
| 20260506003826 | 51 | 38 | 8.7 | 17.4 | 0.00 | 0.08 | 0.00 | 81 | 1007.5 |
| 20260506002313 | 51 | 19 | 8.7 | 12.2 | 0.00 | 0.08 | 0.00 | 80 | 1007.5 |
| 20260506001828 | 51 | 27 | 7.8 | 14.8 | 0.00 | 0.08 | 0.00 | 80 | 1007.6 |
| 20260506001320 | 51 | 29 | 8.7 | 16.5 | 0.00 | 0.08 | 0.00 | 79 | 1007.6 |
| 20260506000814 | 51 | 22 | 7.8 | 16.5 | 0.00 | 0.08 | 0.00 | 79 | 1007.6 |
| 20260506000330 | 51 | 5 | 8.7 | 14.8 | 0.00 | 0.08 | 0.00 | 79 | 1007.5 |
| 20260505235827 | 51 | 34 | 8.7 | 12.2 | 0.00 | 0.08 | 0.00 | 79 | 1007.6 |
| 20260505235322 | 52 | 17 | 8.7 | 15.6 | 0.00 | 0.08 | 0.00 | 79 | 1007.6 |
| 20260505234816 | 52 | 12 | 9.6 | 16.5 | 0.00 | 0.08 | 0.00 | 78 | 1007.7 |
| 20260505234330 | 52 | 26 | 9.6 | 16.5 | 0.00 | 0.08 | 0.00 | 78 | 1007.5 |
| 20260505233823 | 52 | 44 | 8.7 | 17.4 | 0.00 | 0.08 | 0.00 | 78 | 1007.3 |
| 20260505233318 | 52 | 19 | 12.2 | 17.4 | 0.00 | 0.08 | 0.00 | 78 | 1007.1 |
| 20260505232831 | 52 | 24 | 11.3 | 16.5 | 0.00 | 0.08 | 0.00 | 78 | 1007.3 |
| 20260505231824 | 52 | 44 | 10.4 | 15.6 | 0.00 | 0.08 | 0.00 | 77 | 1007.1 |
| 20260505231317 | 52 | 11 | 11.3 | 16.5 | 0.00 | 0.08 | 0.00 | 77 | 1007.0 |
| 20260505230832 | 52 | 13 | 8.7 | 18.2 | 0.00 | 0.08 | 0.00 | 77 | 1006.9 |
| 20260505230326 | 52 | 40 | 9.6 | 16.5 | 0.00 | 0.08 | 0.00 | 77 | 1007.0 |
| 20260505225821 | 52 | 35 | 9.6 | 18.2 | 0.00 | 0.08 | 0.00 | 77 | 1006.6 |
| 20260505225314 | 53 | 40 | 10.4 | 21.7 | 0.00 | 0.08 | 0.00 | 76 | 1006.4 |
| 20260505224828 | 53 | 40 | 12.2 | 19.1 | 0.00 | 0.08 | 0.00 | 76 | 1006.5 |
| 20260505224327 | 53 | 22 | 9.6 | 16.5 | 0.00 | 0.08 | 0.00 | 75 | 1006.5 |
| 20260505223821 | 53 | 42 | 11.3 | 16.5 | 0.00 | 0.08 | 0.00 | 76 | 1006.1 |
| 20260505223316 | 53 | 23 | 10.4 | 17.4 | 0.00 | 0.08 | 0.00 | 76 | 1006.2 |
| 20260505222829 | 53 | 30 | 11.3 | 17.4 | 0.00 | 0.08 | 0.00 | 75 | 1006.4 |
| 20260505222323 | 53 | 28 | 10.4 | 18.2 | 0.00 | 0.08 | 0.00 | 76 | 1006.4 |
| 20260505221333 | 53 | 51 | 8.7 | 16.5 | 0.00 | 0.08 | 0.00 | 77 | 1006.4 |
| 20260505220827 | 53 | 44 | 11.3 | 19.1 | 0.00 | 0.08 | 0.00 | 76 | 1006.4 |
| 20260505220325 | 53 | 22 | 10.4 | 20.0 | 0.00 | 0.08 | 0.00 | 76 | 1006.4 |
| 20260505215818 | 54 | 28 | 14.8 | 20.0 | 0.00 | 0.08 | 0.00 | 76 | 1006.3 |
| 20260505215332 | 54 | 351 | 8.7 | 17.4 | 0.00 | 0.08 | 0.00 | 77 | 1006.1 |
| 20260505214323 | 54 | 42 | 9.6 | 24.3 | 0.00 | 0.08 | 0.00 | 76 | 1006.0 |
| 20260505213818 | 54 | 36 | 12.2 | 24.3 | 0.00 | 0.08 | 0.00 | 76 | 1005.8 |
| 20260505212826 | 54 | 36 | 10.4 | 20.0 | 0.00 | 0.08 | 0.00 | 77 | 1005.9 |
| 20260505210832 | 54 | 35 | 11.3 | 20.0 | 0.00 | 0.08 | 0.00 | 77 | 1006.0 |
| 20260505210326 | 54 | 17 | 13.9 | 20.0 | 0.00 | 0.08 | 0.00 | 77 | 1006.0 |
| 20260505205318 | 54 | 36 | 12.2 | 18.2 | 0.00 | 0.08 | 0.00 | 79 | 1005.7 |
| 20260505204832 | 54 | 26 | 9.6 | 20.9 | 0.00 | 0.08 | 0.00 | 80 | 1005.5 |
| 20260505204327 | 54 | 43 | 13.0 | 20.0 | 0.00 | 0.08 | 0.00 | 80 | 1005.5 |
| 20260505203821 | 54 | 36 | 11.3 | 20.0 | 0.00 | 0.08 | 0.00 | 81 | 1005.5 |
| 20260505203320 | 54 | 46 | 13.0 | 20.0 | 0.00 | 0.08 | 0.00 | 81 | 1005.5 |
| 20260505202832 | 54 | 28 | 10.4 | 19.1 | 0.00 | 0.08 | 0.00 | 82 | 1005.5 |
| 20260505202327 | 54 | 55 | 9.6 | 20.0 | 0.00 | 0.08 | 0.00 | 83 | 1005.5 |
| 20260505201317 | 54 | 22 | 10.4 | 17.4 | 0.00 | 0.08 | 0.00 | 83 | 1005.7 |
| 20260505200328 | 55 | 16 | 10.4 | 17.4 | 0.00 | 0.08 | 0.00 | 83 | 1005.6 |
| 20260505195823 | 55 | 15 | 10.4 | 17.4 | 0.00 | 0.08 | 0.00 | 83 | 1005.5 |
| 20260505195317 | 55 | 28 | 9.6 | 18.2 | 0.00 | 0.08 | 0.00 | 83 | 1005.4 |
| 20260505194815 | 55 | 5 | 10.4 | 18.2 | 0.00 | 0.08 | 0.00 | 83 | 1005.5 |
| 20260505193323 | 55 | 32 | 10.4 | 20.0 | 0.00 | 0.08 | 0.00 | 83 | 1005.3 |
| 20260505192817 | 55 | 28 | 13.0 | 20.0 | 0.00 | 0.08 | 0.00 | 83 | 1005.3 |
| 20260505192330 | 55 | 38 | 11.3 | 18.2 | 0.00 | 0.08 | 0.00 | 84 | 1005.3 |
| 20260505190817 | 55 | 26 | 10.4 | 16.5 | 0.00 | 0.08 | 0.00 | 84 | 1005.1 |
| 20260505190315 | 55 | 61 | 11.3 | 15.6 | 0.00 | 0.08 | 0.00 | 84 | 1005.0 |
| 20260505185325 | 56 | 54 | 12.2 | 18.2 | 0.00 | 0.08 | 0.00 | 85 | 1005.2 |
| 20260505184818 | 56 | 30 | 8.7 | 13.9 | 0.00 | 0.08 | 0.00 | 85 | 1005.5 |
| 20260505184325 | 56 | 42 | 7.0 | 13.9 | 0.00 | 0.08 | 0.00 | 85 | 1005.5 |
| 20260505183819 | 56 | 26 | 7.0 | 17.4 | 0.00 | 0.08 | 0.00 | 85 | 1005.2 |
| 20260505183334 | 56 | 19 | 11.3 | 17.4 | 0.00 | 0.08 | 0.00 | 85 | 1004.8 |
| 20260505182323 | 56 | 31 | 10.4 | 14.8 | 0.00 | 0.08 | 0.00 | 85 | 1004.6 |
| 20260505181821 | 56 | 32 | 8.7 | 14.8 | 0.00 | 0.08 | 0.00 | 86 | 1004.6 |
| 20260505181316 | 56 | 44 | 10.4 | 15.6 | 0.00 | 0.08 | 0.00 | 86 | 1004.6 |
| 20260505180830 | 56 | 24 | 10.4 | 16.5 | 0.00 | 0.08 | 0.00 | 86 | 1004.7 |
| 20260505180325 | 56 | 30 | 11.3 | 16.5 | 0.00 | 0.08 | 0.00 | 86 | 1004.7 |
| 20260505175819 | 56 | 42 | 8.7 | 15.6 | 0.00 | 0.08 | 0.00 | 87 | 1004.7 |
| 20260505174829 | 56 | 26 | 8.7 | 16.5 | 0.00 | 0.08 | 0.00 | 87 | 1004.9 |
| 20260505174324 | 56 | 51 | 9.6 | 16.5 | 0.00 | 0.08 | 0.00 | 87 | 1004.7 |
| 20260505173822 | 56 | 16 | 11.3 | 16.5 | 0.00 | 0.08 | 0.00 | 87 | 1004.3 |
| 20260505173317 | 56 | 34 | 12.2 | 18.2 | 0.00 | 0.08 | 0.00 | 87 | 1004.2 |
| 20260505172831 | 56 | 19 | 10.4 | 18.2 | 0.00 | 0.08 | 0.00 | 87 | 1004.1 |
| 20260505171822 | 56 | 59 | 12.2 | 20.0 | 0.00 | 0.08 | 0.00 | 87 | 1003.7 |
| 20260505171317 | 56 | 32 | 12.2 | 20.0 | 0.00 | 0.08 | 0.00 | 87 | 1003.7 |
| 20260505170830 | 56 | 5 | 10.4 | 19.1 | 0.00 | 0.08 | 0.00 | 87 | 1003.7 |
| 20260505170325 | 56 | 360 | 12.2 | 19.1 | 0.00 | 0.08 | 0.00 | 87 | 1003.6 |
| 20260505165823 | 56 | 42 | 10.4 | 19.1 | 0.00 | 0.08 | 0.00 | 87 | 1003.9 |
| 20260505165316 | 56 | 28 | 13.0 | 19.1 | 0.00 | 0.08 | 0.00 | 87 | 1003.8 |
| 20260505164831 | 56 | 19 | 11.3 | 16.5 | 0.00 | 0.08 | 0.00 | 87 | 1003.7 |
| 20260505164325 | 56 | 36 | 11.3 | 19.1 | 0.00 | 0.08 | 0.00 | 87 | 1003.5 |
| 20260505163820 | 57 | 9 | 12.2 | 18.2 | 0.00 | 0.08 | 0.00 | 87 | 1003.5 |
| 20260505163333 | 57 | 22 | 11.3 | 18.2 | 0.00 | 0.08 | 0.00 | 87 | 1003.4 |
| 20260505162323 | 58 | 11 | 12.2 | 17.4 | 0.00 | 0.08 | 0.00 | 87 | 1003.3 |
| 20260505161822 | 58 | 5 | 10.4 | 17.4 | 0.00 | 0.08 | 0.00 | 87 | 1003.5 |
| 20260505161316 | 58 | 34 | 12.2 | 18.2 | 0.00 | 0.08 | 0.00 | 87 | 1003.4 |
| 20260505160831 | 58 | 360 | 11.3 | 18.2 | 0.00 | 0.08 | 0.00 | 87 | 1003.4 |
| 20260505160325 | 59 | 32 | 10.4 | 20.9 | 0.00 | 0.08 | 0.00 | 87 | 1003.2 |
| 20260505153321 | 60 | 28 | 10.4 | 16.5 | 0.00 | 0.08 | 0.00 | 87 | 1002.8 |
| 20260505152815 | 60 | 33 | 9.6 | 14.8 | 0.00 | 0.08 | 0.00 | 87 | 1002.8 |
| 20260505152329 | 60 | 323 | 7.0 | 14.8 | 0.00 | 0.08 | 0.00 | 87 | 1002.7 |
| 20260505151319 | 61 | 350 | 9.6 | 14.8 | 0.00 | 0.08 | 0.00 | 86 | 1002.7 |
| 20260505150833 | 62 | 344 | 10.4 | 14.8 | 0.00 | 0.08 | 0.00 | 86 | 1002.4 |
| 20260505140317 | 65 | 24 | 6.1 | 9.6 | 0.00 | 0.08 | 0.00 | 86 | 1001.8 |
| 20260505124827 | 66 | 24 | 5.2 | 7.8 | 0.00 | 0.08 | 0.00 | 85 | 1002.1 |
| 20260505123818 | 65 | 95 | 2.6 | 8.7 | 0.00 | 0.08 | 0.00 | 86 | 1002.0 |